Regional Weather Roundup
Issued by NWS

Home | Current Version | Previous Version | Graphics & Text | Print | Product List | Glossary On
Versions: 1 2 3 4 5 6 7 8 9 10 11 12 13 14 15 16 17 18 19 20 21 22 23 24 25 26 27 28 29 30 31 32 33 34 35 36 37 38 39 40 41 42 43 44 45 46 47 48 49 50
000
ASUS44 KMEG 222100
RWRTN
TENNESSEE HOURLY STATE WEATHER ROUNDUP
NATIONAL WEATHER SERVICE MEMPHIS TN
400 PM CDT FRI AUG 22 2014

TNZ002-004-019-021-049-052-054-088>092-222200-
WEST TENNESSEE

CITY           SKY/WX    TMP DP  RH WIND       PRES   REMARKS
MEMPHIS INTL   MOSUNNY   96  72  45 SW10G16   30.02F HX 104
NWS MEMPHIS      N/A     94 N/A N/A MISG        N/A
JACKSON        MOSUNNY   92  73  53 SW6       30.02F HX 100
DYERSBURG      MOSUNNY   93  70  46 S5        30.00F HX  99
PARIS          SUNNY     90  73  58 W10       30.02F HX  98
SAVANNAH       SUNNY     91  72  52 W5        30.03F HX  98
$$

TNZ008-025-027-028-033-062-065-066-222200-
NORTH MIDDLE TENNESSEE

CITY           SKY/WX    TMP DP  RH WIND       PRES   REMARKS
NASHVILLE      PTSUNNY   92  73  53 SW7       30.02F HX 100
CLARKSVILLE    PTSUNNY   89  75  63 VRB6      30.00F HX  99
COOKEVILLE     SUNNY     91  75  59 NW5       30.05S HX 102
CROSSVILLE     SUNNY     84  69  60 VRB6      30.11F
$$

TNZ061-075-076-078-094-096-097-222200-
SOUTH MIDDLE TENNESSEE

CITY           SKY/WX    TMP DP  RH WIND       PRES   REMARKS
SHELBYVILLE    SUNNY     93  73  52 SW8       30.04F HX 102
$$

TNZ017-018-042-046-047-222200-
NORTHEAST TENNESSEE

CITY           SKY/WX    TMP DP  RH WIND       PRES   REMARKS
TRI CITIES     MOSUNNY   88  67  49 W13       30.05S HX  91
ELIZABETHTON   PTCLDY    84  68  58 W7        30.05S
$$

TNZ012-013-036-069-073-074-222200-
CENTRAL EAST TENNESSEE

CITY           SKY/WX    TMP DP  RH WIND       PRES   REMARKS
KNOXVILLE      MOSUNNY   89  70  53 SW9       30.03  HX  94
OAK RIDGE      MOSUNNY   91  69  48 VRB5      30.04F HX  96
GATLINBURG     CLEAR     88  72  58 VRB3      30.03F HX  94
$$

TNZ083-085-099-222200-
SOUTHEAST TENNESSEE

CITY           SKY/WX    TMP DP  RH WIND       PRES   REMARKS
CHATTANOOGA    PTSUNNY   93  67  42 NW5       30.03F HX  96
$$

SKY/WX REPORTED AS FAIR MEANS FEW OR NO CLOUDS BELOW
12 THOUSAND FEET.



USA.gov is the U.S. government's official web portal to all federal, state and local government web resources and services.